Hourly Data Report for October 27, 2016

All times are specified in Local Standard Time (LST). Add 1 hour to adjust for Daylight Saving Time where and when it is observed.

RESOLUTE BAY A
NUNAVUT

74°43'01.000" N
94°58'10.000" W
67.70 m
2403498
71924
YRB

Download Data

Hourly Data (October 2016)
Hourly Data Report for October 27, 2016
Temp Definition
°C
Dew Point Temp Definition
°C
Rel Hum Definition
%
Wind Dir Definition
10's deg

Wind Spd Definition
km/h
Visibility Definition
km
Stn Press Definition
kPa
Hmdx Definition


Wind Chill Definition


Weather Definition


TIME
00:00 Legend Double Dagger -23.4 -26.5 76 35 10 24.1 100.84   -31 Ice Crystals
01:00 Legend Double Dagger -22.6 -25.5 78 35 16 24.1 100.87   -33 Ice Crystals
02:00 Legend Double Dagger -23.3 -26.4 76 34 18 24.1 100.90   -34 Ice Crystals
03:00 Legend Double Dagger -22.5 -25.5 77 32 14 24.1 100.93   -32 Ice Crystals
04:00 Legend Double Dagger -20.8 -23.8 77 31 18 24.1 100.98   -31 Ice Crystals
05:00 Legend Double Dagger -22.6 -25.7 76 31 10 24.1 101.03   -30 Ice Crystals
06:00 Legend Double Dagger -21.5 -25.0 74 3 24 24.1 101.01   -33 Ice Crystals
07:00 Legend Double Dagger -21.4 -24.6 76 4 35 24.1 100.99   -35 Ice Crystals
08:00 Legend Double Dagger -21.6 -24.8 76 4 29 24.1 101.02   -34 Ice Crystals
09:00 Legend Double Dagger -21.9 -25.1 76 4 32 24.1 101.07   -35 Ice Crystals
10:00 Legend Double Dagger -22.3 -25.2 78 3 33 24.1 101.07   -36 Ice Crystals
11:00 Legend Double Dagger -22.2 -25.2 77 3 32 24.1 101.06   -36 Ice Crystals
12:00 Legend Double Dagger -21.7 -24.7 77 4 42 24.1 101.05   -37 Blowing Snow
13:00 Legend Double Dagger -19.7 -22.8 77 4 37 24.1 101.07   -33 Blowing Snow
14:00 Legend Double Dagger -19.1 -23.3 70 4 38 24.1 101.07   -33 Blowing Snow
15:00 Legend Double Dagger -21.0 -25.3 69 1 20 24.1 101.15   -32 Clear
16:00 Legend Double Dagger -19.5 -23.8 69 34 13 24.1 101.19   -28 LegendNANA
17:00 Legend Double Dagger -19.4 -24.1 67 26 3 24.1 101.17   -22 LegendNANA
18:00 Legend Double Dagger -19.2 -24.2 65 4 41 24.1 101.15   -33 Clear
19:00 Legend Double Dagger -19.5 -24.7 64 4 38 24.1 101.17   -33 LegendNANA
20:00 Legend Double Dagger -20.2 -25.2 65 5 46 24.1 101.14   -35 Blowing Snow
21:00 Legend Double Dagger -20.4 -25.4 65 5 40 24.1 101.15   -35 Blowing Snow
22:00 Legend Double Dagger -19.4 -23.9 68 4 40 24.1 101.17   -33 Blowing Snow
23:00 Legend Double Dagger -17.8 -21.7 72 5 14 24.1 101.22   -26 Blowing Snow

Notes on Data Quality.

Legend

  • E = Estimated
  • M = Missing
  • NA = Not Available
  • ‡ = Partner data that is not subject to review by the National Climate Archives
Date modified: